UAE434 OMDB-YBBN

Flight info

Callsign UAE434
Flight time N/A
Altitude 29000
Route ANVIX L223 TARDI N629 GIDAN P570 EMURU M300 NITIX/N0507F310 M300 VASTU P895 BIKOK M641 ADLIG/N0502F330 M641 DOGAR DCT DAOVO DCT PIBED DCT 09S094E DCT POROR DCT 19S106E 22S111E/N0490F350 DCT ATLOD DCT NOPED DCT 28S124E DCT PINAV DCT 29S130E DCT CARTS DCT GUGAB DCT AROLI DCT EGUBA DCT ENLIP
Aircraft B77W/H-SDE1E2E3FGHIJ2J3J4J5M1RWXY/LB1D1

Departure

Time 2026-05-05 15:44
Airport Dubai International Airport (OMDB)

Arrival

Time N/A
Airport Brisbane International Airport (YBBN)
Time Latitude Longitude Altitude Speed Heading
2026-05-05 14:49 25.24205 55.37253 46 ft 0 kts 30°
2026-05-05 15:32 25.24204 55.37253 45 ft 0 kts 30°
2026-05-05 15:33 25.24192 55.37245 45 ft 2 kts 30°
2026-05-05 15:33 25.24179 55.37236 45 ft 2 kts 30°
2026-05-05 15:33 25.24166 55.37228 45 ft 2 kts 30°
2026-05-05 15:33 25.24153 55.37219 45 ft 2 kts 40°
2026-05-05 15:34 25.24143 55.37207 45 ft 2 kts 61°
2026-05-05 15:34 25.24137 55.37191 45 ft 2 kts 78°
2026-05-05 15:34 25.24136 55.37174 45 ft 2 kts 96°
2026-05-05 15:34 25.24139 55.37157 45 ft 2 kts 114°
2026-05-05 15:35 25.24143 55.37149 45 ft 1 kts 122°
2026-05-05 15:35 25.24144 55.37147 45 ft 0 kts 122°
2026-05-05 15:37 25.24143 55.37149 45 ft 1 kts 122°
2026-05-05 15:37 25.24129 55.37175 45 ft 6 kts 122°
2026-05-05 15:37 25.24095 55.37235 45 ft 11 kts 121°
2026-05-05 15:37 25.24044 55.37325 45 ft 14 kts 121°
2026-05-05 15:38 25.23996 55.37413 45 ft 12 kts 118°
2026-05-05 15:38 25.23975 55.37494 45 ft 9 kts 92°
2026-05-05 15:38 25.23988 55.37557 45 ft 7 kts 63°
2026-05-05 15:38 25.24020 55.37598 45 ft 7 kts 41°
2026-05-05 15:39 25.24062 55.37631 45 ft 7 kts 32°
2026-05-05 15:39 25.24106 55.37660 45 ft 7 kts 31°
2026-05-05 15:39 25.24149 55.37689 45 ft 6 kts 31°
2026-05-05 15:39 25.24168 55.37701 45 ft 0 kts 31°
2026-05-05 15:40 25.24171 55.37703 45 ft 2 kts 31°
2026-05-05 15:40 25.24214 55.37734 45 ft 12 kts 33°
2026-05-05 15:40 25.24299 55.37794 45 ft 15 kts 32°
2026-05-05 15:40 25.24382 55.37853 45 ft 12 kts 33°
2026-05-05 15:41 25.24447 55.37901 45 ft 10 kts 34°
2026-05-05 15:41 25.24498 55.37940 45 ft 7 kts 34°
2026-05-05 15:41 25.24538 55.37970 45 ft 6 kts 34°
2026-05-05 15:41 25.24577 55.37999 45 ft 6 kts 34°
2026-05-05 15:42 25.24618 55.38030 45 ft 7 kts 33°
2026-05-05 15:42 25.24674 55.38070 45 ft 10 kts 32°
2026-05-05 15:42 25.24745 55.38103 45 ft 10 kts 353°
2026-05-05 15:42 25.24795 55.38046 45 ft 13 kts 300°
2026-05-05 15:43 25.24926 55.37809 45 ft 66 kts 301°
2026-05-05 15:43 25.25296 55.37143 45 ft 131 kts 301°
2026-05-05 15:43 25.25886 55.36083 46 ft 189 kts 301°
2026-05-05 15:43 25.26614 55.34741 405 ft 211 kts 300°
2026-05-05 15:44 25.27355 55.33305 1128 ft 218 kts 301°
2026-05-05 15:44 25.28100 55.31822 1879 ft 221 kts 301°
2026-05-05 15:44 25.28857 55.30272 2124 ft 239 kts 296°
2026-05-05 15:44 25.29346 55.28462 2485 ft 246 kts 271°
2026-05-05 15:45 25.29052 55.26714 3307 ft 229 kts 245°
2026-05-05 15:45 25.28374 55.25126 3746 ft 233 kts 242°
2026-05-05 15:45 25.27615 55.23481 3977 ft 246 kts 242°
2026-05-05 15:45 25.26812 55.21761 4447 ft 249 kts 242°
2026-05-05 15:46 25.25965 55.20080 4956 ft 250 kts 231°
2026-05-05 15:46 25.24596 55.18834 5226 ft 258 kts 200°
2026-05-05 15:46 25.22813 55.18445 5354 ft 271 kts 173°
2026-05-05 15:46 25.20941 55.19045 5469 ft 286 kts 145°
2026-05-05 15:47 25.19511 55.20581 5979 ft 285 kts 122°
2026-05-05 15:47 25.18785 55.21816 6410 ft 286 kts 121°
2026-05-05 15:47 25.17359 55.24352 7138 ft 291 kts 121°
2026-05-05 15:47 25.16260 55.26314 7695 ft 295 kts 121°
2026-05-05 15:48 25.15171 55.28258 8224 ft 298 kts 121°
2026-05-05 15:48 25.14074 55.30213 8787 ft 300 kts 121°
2026-05-05 15:48 25.12970 55.32183 9314 ft 302 kts 121°
2026-05-05 15:48 25.11864 55.34155 9830 ft 305 kts 121°
2026-05-05 15:49 25.10716 55.36200 10123 ft 318 kts 121°
2026-05-05 15:49 25.09534 55.38306 10307 ft 334 kts 121°
2026-05-05 15:49 25.08283 55.40534 10512 ft 349 kts 121°
2026-05-05 15:49 25.06961 55.42887 10740 ft 364 kts 121°
2026-05-05 15:50 25.05603 55.45303 10964 ft 378 kts 121°
2026-05-05 15:50 25.04201 55.47795 11241 ft 390 kts 121°
2026-05-05 15:50 25.02750 55.50372 11727 ft 396 kts 121°
2026-05-05 15:50 25.01295 55.52956 12291 ft 399 kts 121°
2026-05-05 15:51 24.99838 55.55541 12856 ft 402 kts 121°
2026-05-05 15:51 24.98353 55.58174 13376 ft 405 kts 121°
2026-05-05 15:51 24.96867 55.60808 13900 ft 409 kts 121°
2026-05-05 15:51 24.95369 55.63462 14406 ft 412 kts 121°
2026-05-05 15:52 24.93846 55.66157 14908 ft 415 kts 121°
2026-05-05 15:52 24.92308 55.68880 15454 ft 419 kts 121°
2026-05-05 15:52 24.90774 55.71593 15944 ft 422 kts 121°
2026-05-05 15:52 24.89206 55.74363 16435 ft 426 kts 121°
2026-05-05 15:53 24.87630 55.77147 16915 ft 429 kts 121°
2026-05-05 15:53 24.86034 55.79963 17423 ft 432 kts 121°
2026-05-05 15:53 24.84448 55.82762 17895 ft 436 kts 121°
2026-05-05 15:53 24.82833 55.85610 18345 ft 439 kts 121°
2026-05-05 15:54 24.81222 55.88448 18803 ft 442 kts 121°
2026-05-05 15:54 24.79582 55.91335 19256 ft 446 kts 122°
2026-05-05 15:54 24.77727 55.94104 19662 ft 450 kts 131°
2026-05-05 15:54 24.75528 55.96544 20063 ft 453 kts 136°
2026-05-05 15:55 24.73209 55.98936 20486 ft 457 kts 137°
2026-05-05 15:55 24.70901 56.01306 20904 ft 460 kts 137°
2026-05-05 15:55 24.68553 56.03715 21305 ft 463 kts 137°
2026-05-05 15:55 24.66185 56.06150 21705 ft 467 kts 137°
2026-05-05 15:56 24.63789 56.08615 22099 ft 470 kts 137°
2026-05-05 15:56 24.61408 56.11063 22476 ft 473 kts 137°
2026-05-05 15:56 24.58983 56.13556 22849 ft 476 kts 137°
2026-05-05 15:56 24.56649 56.16092 23223 ft 479 kts 132°
2026-05-05 15:57 24.54442 56.18863 23599 ft 482 kts 131°
2026-05-05 15:57 24.52241 56.21674 23954 ft 485 kts 131°
2026-05-05 15:57 24.50053 56.24466 24289 ft 488 kts 131°
2026-05-05 15:57 24.47825 56.27307 24619 ft 491 kts 131°
2026-05-05 15:58 24.45588 56.30155 24930 ft 494 kts 131°
2026-05-05 15:58 24.43346 56.33009 25244 ft 497 kts 131°
2026-05-05 15:58 24.41069 56.35905 25567 ft 500 kts 131°
2026-05-05 15:58 24.38793 56.38795 25892 ft 503 kts 131°
2026-05-05 15:59 24.36486 56.41724 26211 ft 506 kts 131°
2026-05-05 15:59 24.34177 56.44654 26519 ft 509 kts 131°
2026-05-05 15:59 24.31865 56.47585 26845 ft 512 kts 132°
2026-05-05 15:59 24.29528 56.50546 27136 ft 515 kts 131°
2026-05-05 16:00 24.27302 56.53690 27431 ft 519 kts 127°
2026-05-05 16:00 24.25218 56.56889 27734 ft 522 kts 126°
2026-05-05 16:00 24.23104 56.60137 28037 ft 524 kts 126°
2026-05-05 16:00 24.20981 56.63383 28433 ft 524 kts 127°
2026-05-05 16:01 24.18857 56.66615 28766 ft 526 kts 127°
2026-05-05 16:01 24.14566 56.73110 28782 ft 523 kts 127°
2026-05-05 16:02 24.10309 56.79526 28778 ft 522 kts 127°
2026-05-05 16:02 24.05996 56.86006 28781 ft 522 kts 127°
2026-05-05 16:03 24.01710 56.92430 28776 ft 523 kts 127°
2026-05-05 16:03 23.97424 56.98835 28773 ft 522 kts 127°
2026-05-05 16:04 23.93136 57.05234 28787 ft 524 kts 127°
2026-05-05 16:04 23.88799 57.11698 28800 ft 524 kts 127°
2026-05-05 16:05 23.84512 57.18080 28812 ft 522 kts 127°
2026-05-05 16:05 23.80208 57.24481 28808 ft 521 kts 127°
2026-05-05 16:06 23.75926 57.30839 28807 ft 521 kts 127°
2026-05-05 16:06 23.71647 57.37182 28825 ft 520 kts 128°
2026-05-05 16:07 23.67154 57.43389 28829 ft 521 kts 129°
2026-05-05 16:07 23.62664 57.49528 28837 ft 520 kts 129°
2026-05-05 16:08 23.58139 57.55724 28842 ft 519 kts 129°
2026-05-05 16:08 23.53657 57.61860 28841 ft 519 kts 129°
2026-05-05 16:09 23.49163 57.68010 28838 ft 518 kts 130°
2026-05-05 16:09 23.44688 57.74126 28860 ft 518 kts 130°
2026-05-05 16:10 23.40205 57.80244 28879 ft 517 kts 130°
2026-05-05 16:10 23.35703 57.86380 28906 ft 517 kts 130°
2026-05-05 16:11 23.31213 57.92495 28920 ft 517 kts 130°
2026-05-05 16:12 23.22371 58.04762 28947 ft 517 kts 125°
2026-05-05 16:13 23.12269 58.20940 28997 ft 516 kts 125°
2026-05-05 16:13 23.08221 58.27360 29002 ft 516 kts 125°
2026-05-05 16:14 22.99085 58.39164 29004 ft 511 kts 145°
2026-05-05 16:15 22.87028 58.47338 28981 ft 511 kts 150°
2026-05-05 16:16 22.74936 58.55347 28930 ft 510 kts 150°
2026-05-05 16:17 22.65851 58.61351 28923 ft 509 kts 150°
2026-05-05 16:18 22.56823 58.67311 28910 ft 507 kts 150°
2026-05-05 16:19 22.47782 58.73269 28897 ft 507 kts 150°
2026-05-05 16:19 22.38746 58.79214 28894 ft 507 kts 150°
2026-05-05 16:20 22.26689 58.87135 28884 ft 506 kts 149°
2026-05-05 16:21 22.21289 58.91993 28875 ft 509 kts 133°
2026-05-05 16:22 22.14469 59.00766 28878 ft 509 kts 131°
2026-05-05 16:23 22.05411 59.12504 28869 ft 509 kts 130°
2026-05-05 16:23 21.98643 59.21251 28854 ft 509 kts 130°
2026-05-05 16:24 21.94108 59.27103 28846 ft 508 kts 130°
2026-05-05 16:25 21.87305 59.35871 28830 ft 509 kts 130°
2026-05-05 16:25 21.80510 59.44613 28815 ft 509 kts 130°
2026-05-05 16:26 21.71402 59.56308 28809 ft 510 kts 130°
2026-05-05 16:27 21.66850 59.62144 28809 ft 511 kts 130°
2026-05-05 16:27 21.62281 59.67994 28807 ft 511 kts 130°
2026-05-05 16:28 21.57729 59.73818 28809 ft 510 kts 130°
2026-05-05 16:28 21.53146 59.79665 28814 ft 511 kts 131°
2026-05-05 16:29 21.48559 59.85490 28812 ft 511 kts 131°
2026-05-05 16:29 21.43967 59.91317 28816 ft 511 kts 131°
2026-05-05 16:30 21.39400 59.97105 28818 ft 512 kts 131°
2026-05-05 16:30 21.34785 60.02948 28820 ft 512 kts 130°
2026-05-05 16:31 21.30171 60.08785 28826 ft 513 kts 130°
2026-05-05 16:31 21.25563 60.14608 28827 ft 512 kts 130°
2026-05-05 16:32 21.20990 60.20392 28827 ft 511 kts 130°
2026-05-05 16:32 21.16402 60.26199 28827 ft 511 kts 130°
2026-05-05 16:33 21.11803 60.32013 28831 ft 512 kts 130°
2026-05-05 16:33 21.07190 60.37839 28828 ft 512 kts 130°
2026-05-05 16:34 21.02584 60.43650 28830 ft 512 kts 130°
2026-05-05 16:34 20.97977 60.49454 28831 ft 511 kts 130°
2026-05-05 16:35 20.93385 60.55236 28831 ft 511 kts 130°
2026-05-05 16:35 20.88753 60.61060 28832 ft 511 kts 130°
2026-05-05 16:36 20.84176 60.66810 28835 ft 512 kts 130°
2026-05-05 16:36 20.79563 60.72599 28841 ft 512 kts 130°
2026-05-05 16:37 20.74935 60.78400 28842 ft 512 kts 130°
2026-05-05 16:37 20.70320 60.84180 28845 ft 511 kts 130°
2026-05-05 16:38 20.65702 60.89956 28846 ft 512 kts 130°
2026-05-05 16:38 20.61198 60.95824 28842 ft 513 kts 124°
2026-05-05 16:39 20.57340 61.02219 28848 ft 513 kts 122°
2026-05-05 16:39 20.53513 61.08645 28848 ft 514 kts 122°
2026-05-05 16:40 20.49682 61.15064 28849 ft 514 kts 122°
2026-05-05 16:40 20.45838 61.21493 28850 ft 515 kts 122°
2026-05-05 16:41 20.41990 61.27918 28849 ft 515 kts 122°
2026-05-05 16:41 20.38155 61.34314 28850 ft 516 kts 122°
2026-05-05 16:42 20.34289 61.40754 28850 ft 516 kts 122°
2026-05-05 16:42 20.30416 61.47199 28851 ft 516 kts 122°
2026-05-05 16:43 20.26543 61.53636 28851 ft 517 kts 122°
2026-05-05 16:43 20.22661 61.60079 28851 ft 518 kts 122°
2026-05-05 16:44 20.18764 61.66542 28848 ft 518 kts 122°
2026-05-05 16:44 20.14866 61.72998 28847 ft 519 kts 122°
2026-05-05 16:45 20.10969 61.79447 28847 ft 518 kts 122°
2026-05-05 16:45 20.07087 61.85862 28850 ft 520 kts 122°
2026-05-05 16:46 20.03166 61.92335 28856 ft 520 kts 122°
2026-05-05 16:46 19.99238 61.98813 28866 ft 521 kts 122°
2026-05-05 16:47 19.95311 62.05282 28868 ft 521 kts 122°
2026-05-05 16:47 19.91381 62.11748 28868 ft 520 kts 122°
2026-05-05 16:48 19.87487 62.18150 28870 ft 519 kts 122°
2026-05-05 16:48 19.83564 62.24592 28867 ft 519 kts 122°
2026-05-05 16:49 19.79646 62.31017 28867 ft 518 kts 122°
2026-05-05 16:49 19.75734 62.37427 28865 ft 517 kts 122°
2026-05-05 16:50 19.71833 62.43811 28871 ft 518 kts 122°
2026-05-05 16:50 19.67917 62.50214 28865 ft 518 kts 122°
2026-05-05 16:51 19.63991 62.56626 28867 ft 518 kts 122°
2026-05-05 16:51 19.60070 62.63023 28863 ft 517 kts 122°
2026-05-05 16:52 19.56157 62.69400 28859 ft 517 kts 122°
2026-05-05 16:52 19.52228 62.75795 28857 ft 517 kts 122°
2026-05-05 16:53 19.48310 62.82167 28855 ft 516 kts 122°
2026-05-05 16:53 19.44393 62.88530 28858 ft 515 kts 122°
2026-05-05 16:54 19.40480 62.94880 28858 ft 515 kts 122°
2026-05-05 16:54 19.36572 63.01216 28864 ft 515 kts 122°
2026-05-05 16:55 19.32652 63.07565 28872 ft 516 kts 122°
2026-05-05 16:55 19.28718 63.13929 28878 ft 515 kts 122°
2026-05-05 16:56 19.24798 63.20264 28881 ft 516 kts 123°
2026-05-05 16:56 19.20881 63.26587 28880 ft 515 kts 122°
2026-05-05 16:57 19.16949 63.32930 28888 ft 515 kts 122°
2026-05-05 16:57 19.13041 63.39225 28887 ft 514 kts 122°
2026-05-05 16:58 19.09110 63.45552 28887 ft 516 kts 122°
2026-05-05 16:58 19.05166 63.51893 28889 ft 515 kts 122°
2026-05-05 16:59 19.01257 63.58172 28891 ft 515 kts 122°
2026-05-05 16:59 18.97311 63.64505 28895 ft 514 kts 122°
2026-05-05 17:00 18.93381 63.70808 28890 ft 515 kts 123°
2026-05-05 17:00 18.89437 63.77129 28884 ft 514 kts 123°
2026-05-05 17:01 18.85524 63.83392 28878 ft 514 kts 123°
2026-05-05 17:01 18.81589 63.89685 28872 ft 515 kts 123°
2026-05-05 17:02 18.77633 63.96003 28876 ft 514 kts 123°
2026-05-05 17:02 18.73709 64.02266 28874 ft 514 kts 123°
2026-05-05 17:03 18.69758 64.08564 28876 ft 513 kts 123°
2026-05-05 17:03 18.65813 64.14847 28877 ft 513 kts 123°